GFSFLT2_700_spd_000.txt.gz
Wind_Speed
6 8 11 7 3 2 3 3 5 8 10 10 10 11 14 15 18 19 20 22 22 23 24 25 24 23 22 21 20 21 20 20
9 10 4 4 4 5 6 5 6 7 8 9 11 13 15 17 18 20 22 23 24 26 27 27 27 26 25 25 25 24 22 23
11 6 4 4 4 5 4 5 7 8 10 11 13 13 15 16 16 19 22 24 26 27 28 30 30 30 30 28 27 29 28 27
7 4 2 1 5 3 3 4 4 5 7 10 14 15 16 19 21 21 22 23 24 24 27 28 27 28 31 31 30 30 29 31
8 6 2 1 6 5 4 6 8 7 8 11 14 16 19 21 24 25 27 28 28 27 26 27 26 23 23 25 27 27 28 29
16 7 6 4 3 1 4 6 8 11 14 16 18 21 22 22 22 25 26 24 24 25 26 27 26 24 23 21 22 23 24 27
17 12 10 6 3 5 6 9 11 15 19 21 21 23 23 24 23 23 21 20 21 23 25 26 28 28 28 26 26 26 25 25
21 16 12 9 7 8 11 13 16 18 21 21 21 22 22 21 21 21 20 20 24 27 28 28 28 27 27 28 27 26 28 32
22 23 10 10 11 12 16 17 20 22 24 24 23 22 22 24 24 26 27 27 29 31 31 31 31 32 34 36 37 35 31 28
29 18 16 13 18 16 19 21 22 23 26 22 26 29 31 30 29 29 28 28 29 31 30 30 31 31 31 33 36 38 39 41
9 23 23 22 22 19 22 23 23 24 23 23 32 35 34 35 34 35 36 34 36 35 33 34 33 33 34 34 33 35 38 41
17 25 22 22 29 24 21 22 24 31 32 28 38 33 38 37 39 41 40 41 42 37 35 37 35 36 36 37 35 34 34 35
19 22 24 22 27 26 26 28 33 33 32 36 36 37 42 38 40 43 39 44 43 42 41 38 39 37 38 39 39 37 37 36
18 22 23 22 29 31 28 38 36 35 34 36 41 46 47 49 47 48 47 40 42 40 39 40 41 40 41 44 47 46 43 40
20 23 23 24 31 34 39 37 37 37 39 48 52 55 52 37 42 42 42 40 38 40 41 43 47 45 46 47 47 49 51 49
18 22 23 27 33 34 36 38 39 50 49 40 38 38 39 40 38 38 39 43 42 44 46 49 50 52 53 52 51 53 57 59
23 28 30 32 34 36 40 46 46 46 44 46 43 45 42 39 41 43 46 50 51 50 52 53 55 56 55 55 53 48 46 48
25 26 30 34 37 39 41 40 40 45 50 53 51 48 46 45 48 51 52 54 54 55 56 56 55 53 46 43 42 44 46 46
21 23 25 31 39 42 40 46 52 54 49 48 48 50 49 50 52 51 54 57 57 57 53 45 46 38 38 41 41 40 39 40
30 31 30 34 38 43 48 53 53 48 49 49 51 50 49 49 53 54 56 56 53 53 47 39 35 34 35 35 34 35 38 35

GFSFLT2_700_spd_003.txt.gz
Wind_Speed
4 7 8 6 3 1 0 2 2 5 7 8 9 12 12 14 16 18 20 22 22 23 23 23 24 24 24 23 21 20 19 21
6 7 5 1 1 1 0 3 4 4 6 9 11 11 13 14 16 18 20 22 24 25 27 27 26 26 25 24 23 22 21 24
5 6 3 3 1 2 4 3 4 6 7 7 8 8 9 14 15 17 19 21 23 24 25 25 24 26 25 22 20 20 18 21
9 7 4 1 2 4 4 6 6 5 7 8 11 15 18 19 22 23 23 23 23 22 22 23 23 23 25 25 23 20 18 20
5 3 6 5 5 1 0 4 5 5 9 14 18 18 21 23 23 23 22 22 21 20 21 21 21 22 22 23 25 24 22 21
4 6 7 5 8 7 10 10 12 13 16 17 19 21 23 22 22 23 24 23 22 20 21 22 22 22 22 21 22 24 24 25
11 6 8 7 8 7 7 10 12 16 17 19 22 23 23 23 22 23 21 22 22 22 24 23 23 23 24 24 22 20 23 25
15 11 10 14 11 10 12 12 14 18 19 20 21 25 21 21 22 24 24 25 25 26 26 26 26 27 25 25 25 26 25 24
18 18 3 12 12 16 18 17 18 20 23 23 21 30 28 30 31 27 29 30 32 30 29 31 31 30 31 28 28 25 25 29
20 32 24 8 11 17 22 25 21 24 25 27 32 37 34 35 37 36 37 38 36 34 33 35 31 30 30 24 31 32 31 29
18 19 18 22 14 21 24 25 23 25 25 31 30 32 31 32 33 41 45 44 43 41 35 35 34 32 34 34 34 34 34 34
19 24 26 25 20 27 27 26 27 27 33 42 41 38 38 37 41 49 51 49 43 38 39 33 33 35 38 37 37 37 37 34
28 24 19 16 27 20 24 28 32 38 42 34 31 34 40 48 41 44 48 39 34 35 36 36 35 36 40 42 41 39 40 38
21 24 22 25 28 27 29 30 34 38 32 38 42 44 51 46 43 41 41 42 37 33 35 39 38 39 43 45 48 46 44 42
12 14 17 21 25 29 33 37 39 38 35 40 46 47 45 46 42 41 42 40 39 38 39 41 45 44 46 48 52 52 54 50
15 16 18 23 27 32 34 34 35 37 43 49 46 48 48 44 43 43 42 41 43 46 46 46 47 48 49 48 48 50 53 57
22 25 24 28 29 32 33 37 42 44 45 47 52 50 46 43 42 42 43 44 44 46 48 51 52 52 51 47 45 42 46 46
20 20 24 28 32 35 36 36 38 43 48 51 50 46 45 46 48 44 44 45 47 50 49 50 48 47 44 42 45 43 45 43
27 26 32 34 37 38 40 44 44 52 52 45 44 47 47 41 41 42 43 46 48 50 50 48 46 44 42 40 39 39 35 34
37 39 37 38 40 46 47 48 48 51 55 46 43 47 47 46 44 46 48 50 52 51 47 44 43 41 42 39 41 37 35 37

GFSFLT2_700_spd_006.txt.gz
Wind_Speed
4 4 6 5 0 1 1 2 2 4 5 6 7 9 10 11 15 17 19 21 22 23 22 22 21 19 19 18 17 16 18 16
3 5 3 2 2 1 1 2 3 3 3 5 7 10 11 13 16 17 18 19 20 21 22 21 21 20 18 17 16 15 16 15
3 4 3 3 3 2 2 3 3 4 6 7 8 10 13 16 17 18 19 19 19 19 19 19 19 19 18 17 14 14 14 12
2 4 4 3 4 4 4 6 6 5 5 9 11 15 18 20 21 21 20 20 21 18 17 17 16 16 17 18 18 16 15 13
6 7 7 4 3 4 3 4 4 7 10 13 15 17 20 23 24 22 21 22 20 17 17 19 19 18 17 17 18 19 19 19
7 6 6 6 6 4 6 6 8 10 11 15 17 20 22 26 25 25 26 27 24 21 21 21 21 19 20 22 20 19 19 20
3 1 4 7 9 10 12 14 15 15 15 17 18 20 21 26 28 24 29 31 29 28 30 29 26 26 27 25 24 21 21 20
8 11 6 21 11 15 16 19 20 20 19 20 22 24 24 31 32 31 33 33 31 33 35 35 33 33 29 29 25 24 24 25
12 12 17 19 11 16 15 18 21 24 25 26 28 28 29 38 37 38 37 36 40 42 44 41 39 35 34 32 30 29 24 24
11 15 17 20 14 12 14 18 24 24 29 30 28 34 41 38 37 35 39 39 48 49 44 43 38 40 37 34 32 32 30 32
15 16 20 16 16 18 21 21 20 22 26 27 32 35 31 30 32 37 42 47 40 37 36 38 37 38 38 37 35 34 33 34
16 18 21 21 22 22 18 17 21 26 28 27 32 35 33 33 41 50 45 43 41 40 39 38 40 41 40 40 37 35 35 36
18 19 24 21 20 13 15 22 26 29 32 32 30 33 36 46 45 46 45 48 47 42 41 40 40 39 42 42 41 38 38 38
20 15 15 14 13 18 23 25 28 28 30 36 41 41 44 42 46 48 49 45 42 41 42 43 42 42 45 46 50 47 42 41
7 7 10 15 20 24 26 27 29 34 36 36 36 41 44 47 49 47 43 42 43 43 42 44 46 46 46 48 51 53 54 49
12 13 17 21 24 26 28 31 34 37 38 38 38 43 48 49 45 41 41 43 46 47 46 45 46 47 47 47 47 49 53 59
18 21 24 23 24 26 26 29 29 32 37 39 45 48 49 49 42 40 43 44 41 43 43 44 46 47 47 47 47 48 49 49
17 14 20 22 27 34 36 39 42 44 46 50 48 50 49 56 44 43 42 44 44 44 46 49 51 51 49 47 46 46 47 45
24 27 30 32 39 42 43 46 50 51 47 48 40 52 43 52 43 43 45 48 48 50 52 53 50 47 45 45 43 40 43 43
28 28 29 35 41 44 46 47 43 46 53 54 48 50 51 46 46 51 53 50 51 51 50 51 47 44 43 44 45 43 42 41

GFSFLT2_700_spd_009.txt.gz
Wind_Speed
4 1 4 5 3 2 1 2 2 3 4 7 9 9 10 12 15 16 17 18 19 20 21 20 19 17 16 15 12 10 9 10
2 2 2 2 2 2 4 3 3 4 6 7 9 10 12 15 16 17 17 16 18 20 19 19 21 21 19 17 15 12 9 7
2 1 3 4 5 3 4 4 4 5 6 7 8 10 14 18 19 20 19 18 20 21 19 17 18 19 21 20 18 15 13 9
2 5 6 5 4 3 4 3 3 2 4 7 9 13 16 19 23 23 22 23 23 23 21 20 21 21 21 20 22 23 20 15
7 6 6 5 4 2 2 3 2 5 9 10 13 17 18 21 23 26 27 26 25 25 22 21 24 26 24 22 24 27 26 23
6 5 3 6 2 2 5 6 7 10 14 18 19 22 21 22 22 27 30 28 27 26 24 25 27 29 28 27 29 29 28 26
3 6 3 9 7 9 11 12 13 14 17 21 23 25 25 22 26 31 31 30 30 30 31 37 38 36 34 32 29 30 30 30
9 8 5 7 12 10 15 13 16 17 21 21 24 27 26 26 33 33 34 34 35 39 40 42 43 39 37 34 32 33 34 34
6 9 8 12 16 17 14 14 18 19 19 18 23 24 25 31 37 39 40 37 37 42 47 43 38 39 37 36 34 35 35 36
14 16 16 13 17 16 17 16 18 16 17 20 24 26 29 32 37 38 38 36 40 46 43 40 41 42 40 37 35 36 38 39
20 22 22 15 14 11 21 19 15 14 20 25 28 31 33 35 32 34 39 42 52 48 47 48 48 45 42 40 38 37 39 40
21 21 22 20 12 27 14 15 15 20 26 30 31 31 34 36 36 40 45 50 51 51 51 50 47 47 45 43 40 40 40 42
19 21 23 23 18 17 13 15 23 26 30 30 32 34 35 41 41 47 48 50 53 53 49 45 44 46 49 50 47 44 44 45
17 21 20 14 15 14 19 23 26 28 30 30 33 37 39 42 44 46 51 52 52 49 46 46 46 49 52 55 57 54 49 48
17 13 11 14 16 19 21 22 24 26 29 31 35 38 42 44 48 53 53 51 49 48 46 47 49 49 50 51 53 54 55 51
13 11 13 15 15 15 17 20 24 28 32 36 40 43 46 49 53 51 55 48 41 44 45 46 46 46 45 45 48 52 56 60
19 18 17 15 20 24 27 32 37 39 42 45 47 49 53 58 46 51 46 42 42 39 42 46 49 51 52 52 51 53 57 60
14 17 21 28 32 34 39 42 45 48 51 53 52 54 51 50 44 52 58 47 42 44 45 46 47 48 47 50 55 56 55 55
18 25 28 33 36 41 45 48 48 50 53 51 49 46 54 57 48 51 50 53 48 48 51 44 43 44 46 49 47 51 51 48
23 30 34 34 38 43 47 47 49 49 46 48 51 51 49 50 44 40 48 33 42 46 44 44 43 45 42 42 40 39 40 41